CAPE
14 6 5 7 1 0 0 2 2 6 0 0 26 1 0 13 384 471 509 558 598 590 584 432 321 474 954 832 665 763 697 571 604 318 1 0 0 0 0 0 0 0 0 0
0 0 0 0 0 0 0 15 3 0 0 0 5 8 3 22 36 182 367 543 555 614 662 742 645 505 906 1010 873 884 688 657 682 182 44 59 0 0 0 0 0 0 0 0
1 0 0 0 0 1 0 16 16 7 0 0 62 46 4 12 56 99 154 327 517 628 867 886 708 935 1412 1058 1043 988 630 719 127 2 0 0 0 0 0 0 0 0 0 0
0 0 0 0 0 0 41 51 8 15 37 0 50 96 2 92 19 144 273 333 367 548 793 883 1055 1063 1416 996 997 788 620 5 0 0 0 0 0 0 0 0 0 0 0 0
4 20 1 1 18 81 23 21 36 44 73 148 80 69 91 1 151 174 359 515 608 716 814 1062 1149 1175 1152 806 1007 556 0 0 0 0 0 0 0 0 0 0 0 0 0 0
4 9 25 60 38 71 71 7 85 23 56 301 12 49 27 17 21 214 214 412 598 694 946 1066 1047 938 809 818 448 1 0 0 0 0 0 0 0 0 0 0 0 0 0 0
0 1 15 20 2 25 9 28 72 78 182 249 72 77 251 38 112 87 119 415 594 872 938 1014 1042 1030 656 222 3 0 0 0 0 0 0 0 0 0 0 0 0 0 0 0
63 74 23 1 1 20 52 1 168 8 0 52 36 38 18 213 159 98 340 552 854 986 1006 856 629 340 95 0 0 0 0 0 0 0 0 0 0 0 0 0 0 0 0 0
46 0 0 9 0 2 0 59 40 10 129 245 15 0 1 24 11 88 558 545 670 627 446 285 196 0 0 0 0 0 0 0 0 0 0 0 0 0 0 0 0 0 0 0
29 0 18 6 3 4 5 0 98 88 10 0 0 18 112 59 21 8 416 442 443 369 155 23 1 0 0 0 0 0 0 0 0 0 0 0 0 0 0 0 0 0 0 0
70 169 85 10 5 0 0 2 0 0 285 514 324 29 1 0 1 53 125 505 355 266 70 0 0 0 0 0 0 0 0 0 0 0 0 0 0 0 0 0 0 0 0 0
17 38 586 74 0 0 0 78 0 510 32 552 394 12 0 0 0 0 13 276 279 170 28 0 0 0 0 0 0 0 0 0 0 0 0 0 0 0 0 0 0 0 0 0
35 55 304 80 127 19 0 0 18 31 181 180 291 63 0 0 0 0 0 13 216 151 32 0 0 0 0 0 0 0 0 0 0 0 0 0 0 0 0 0 0 0 0 0
143 27 6 286 72 64 101 0 0 0 236 47 0 0 0 0 0 0 0 0 14 102 75 3 0 0 0 0 0 0 0 0 0 0 0 0 0 0 0 0 0 0 0 0
25 9 1 0 25 21 20 6 0 0 0 0 20 0 0 0 0 0 0 0 0 0 43 41 57 16 0 0 0 0 0 0 0 0 0 0 0 0 0 0 0 0 0 0
38 234 185 173 28 3 0 0 0 0 0 0 0 0 0 0 0 0 0 0 0 0 0 54 108 53 0 0 0 0 0 0 0 0 0 0 0 0 0 0 0 0 0 0
425 703 182 47 0 0 0 0 0 0 0 0 0 0 0 0 0 0 0 0 0 0 0 0 19 48 7 0 0 0 0 0 0 0 0 0 0 0 0 0 0 0 0 0
330 317 213 192 0 0 0 0 0 0 0 0 0 0 0 0 0 0 0 0 0 0 0 0 0 0 0 0 0 0 0 0 0 0 0 0 0 0 0 0 0 0 0 2
63 183 133 47 0 0 0 0 0 0 0 0 0 0 0 0 0 0 0 0 0 0 0 0 0 0 0 0 0 0 0 0 0 0 0 0 0 0 0 0 0 0 0 0
0 9 334 0 52 0 0 0 0 0 0 0 0 0 0 0 0 0 0 0 0 0 0 0 0 0 0 0 0 0 0 0 0 0 0 0 0 0 0 0 0 0 0 0
0 50 0 0 54 7 0 0 0 0 1 0 0 0 0 0 0 0 0 0 0 0 0 0 0 1 0 0 0 0 0 0 0 0 0 0 0 0 0 0 0 0 0 0
9 132 2 144 0 0 0 0 0 35 0 0 0 0 0 0 0 0 0 0 0 0 0 0 0 0 0 0 0 0 0 0 0 0 0 0 0 0 0 0 0 0 0 0
120 160 499 7 52 0 0 0 0 0 0 0 0 0 0 0 0 0 1 0 0 0 0 0 0 0 0 0 0 0 0 1 2 1 0 0 0 0 0 0 0 0 0 0
15 0 85 8 0 0 0 0 0 0 0 0 0 0 5 1 7 0 8 0 0 0 0 0 0 0 1 0 0 0 6 0 0 0 0 0 0 0 0 0 0 0 0 1
89 0 0 0 0 0 0 2 4 0 0 0 6 4 0 0 0 0 0 0 0 0 0 0 0 0 0 0 0 0 0 0 0 0 0 0 0 0 0 0 0 0 0 0
0 0 191 155 0 1 2 0 0 0 0 0 0 0 0 0 0 0 0 0 0 0 0 0 0 0 0 0 0 0 0 0 0 0 0 0 0 0 0 0 0 0 0 0
CIN
-35 -24 0 0 -2 0 0 -3 -14 -4 0 0 -1 -6 0 -24 -18 -3 -5 -2 -4 0 -2 -33 -52 -33 -13 -27 -29 -11 -13 -39 -43 -28 -86 0 0 0 0 0 0 0 0 0
-15 -4 0 0 0 -1 -3 -11 -17 0 0 0 -2 -9 -28 -22 -3 -2 -2 -16 -10 -3 -2 -11 -12 -34 -18 -14 -16 -12 -17 -15 -14 -28 -56 -46 0 0 0 0 0 0 0 0
-12 -8 0 0 0 -3 -1 -7 -19 -5 0 0 -59 -9 -2 -27 -3 -2 -3 -2 -4 -4 -9 -17 -23 -13 -14 -26 -16 -9 -10 -7 -46 -66 0 0 0 0 0 0 0 0 0 0
0 -36 0 0 0 0 -6 -33 -6 -21 -28 0 -47 -6 -87 -54 -10 -6 -2 -3 -5 -3 -16 -26 -17 -11 -36 -37 -23 -11 -7 -24 -27 0 0 0 0 0 0 0 0 0 0 0
-9 -8 -10 -26 -6 -1 -22 -47 -20 -1 -2 -8 -23 -31 -82 -55 -41 -20 -16 -19 -9 -11 -27 -19 -20 -40 -34 -44 -16 -31 0 0 0 0 0 0 0 0 0 0 0 0 0 0
-43 -23 -13 -18 -5 -7 -20 -14 -13 -2 -2 -37 -40 -47 -80 -84 -87 -57 -30 -32 -30 -48 -23 -7 -46 -39 -18 -13 -52 -166 0 0 0 0 0 0 0 0 0 0 0 0 0 0
0 -18 -10 -15 -5 -14 -5 -2 -2 -21 -30 -13 -3 -36 -69 -194 -120 -253 -324 -54 -42 -14 -16 -5 -35 -9 -18 -109 -115 0 0 0 0 0 0 0 0 0 0 0 0 0 0 0
-6 -2 -19 -40 -20 -77 -5 0 -9 -29 0 -55 -19 -44 -9 -39 -90 -310 -99 -41 -25 -3 -4 -7 -10 -62 -175 -21 0 0 0 0 0 0 0 0 0 0 0 0 0 0 0 0
-71 -7 -11 -13 -1 -17 0 -1 -3 -8 -82 -3 -12 0 -1 -25 -34 -27 -14 -36 -57 -43 -47 -57 -92 0 0 0 0 0 0 0 0 0 0 0 0 0 0 0 0 0 0 0
-64 0 -87 -19 -25 -50 -15 0 -4 -7 -1 0 0 -14 0 -13 -42 -69 -12 -48 -56 -76 -130 -189 -45 0 0 0 0 0 0 0 0 0 0 0 0 0 0 0 0 0 0 0
-15 -36 -3 -59 -34 0 0 -14 0 0 -4 -4 -5 -6 -13 0 -21 -49 -44 -16 -57 -93 -172 0 0 0 0 0 0 0 0 0 0 0 0 0 0 0 0 0 0 0 0 0
-23 -17 -8 -14 0 0 0 -5 0 -17 -24 -19 -32 -21 0 0 0 0 -75 -15 -45 -110 -188 0 0 0 0 0 0 0 0 0 0 0 0 0 0 0 0 0 0 0 0 0
-39 -4 -4 -4 -5 -20 0 0 -8 -2 -40 -17 -28 -45 0 0 0 0 0 -91 -18 -61 -101 0 0 0 0 0 0 0 0 0 0 0 0 0 0 0 0 0 0 0 0 0
-38 -25 -2 -2 -4 -7 -7 0 0 0 -50 -54 0 0 0 0 0 0 0 0 -60 -38 -50 -38 0 0 0 0 0 0 0 0 0 0 0 0 0 0 0 0 0 0 0 0
-37 -5 -4 0 -2 -8 -9 -4 0 0 -1 0 -34 0 0 0 -2 0 0 0 0 0 -14 -16 -20 -50 0 0 0 0 0 0 0 0 0 0 0 0 0 0 0 0 0 0
-24 -4 -13 -16 -25 -5 0 0 0 0 0 0 0 0 0 0 0 0 0 0 0 0 0 -17 -21 -42 0 0 0 0 0 0 0 0 0 0 0 0 0 0 0 0 0 0
-11 -30 -53 -8 0 0 0 0 0 0 0 0 0 0 0 0 0 0 0 0 0 0 0 0 -44 -35 -72 0 0 0 0 0 0 0 0 0 0 0 0 0 0 0 0 -3
-77 -55 -49 -21 0 0 0 0 0 0 0 0 0 0 0 0 0 0 0 0 0 0 0 0 0 0 0 0 0 0 0 0 0 0 0 0 0 0 -1 -8 0 0 0 -11
-54 -54 -47 -37 0 0 0 0 0 0 0 0 0 0 0 0 0 0 0 0 0 0 0 0 0 0 0 0 0 0 0 0 0 0 0 0 0 0 0 0 0 0 0 0
0 -46 -12 0 -17 0 0 0 0 0 0 0 0 0 0 0 0 0 0 0 0 0 0 0 0 0 0 -2 0 0 0 0 0 0 0 0 0 0 0 0 0 0 0 0
0 -20 0 0 -3 -11 0 0 0 0 -4 0 0 0 0 0 0 0 0 0 0 0 0 0 0 -17 0 0 0 0 0 0 0 0 0 0 0 0 0 0 0 0 0 0
-54 -24 -65 -10 0 0 0 0 0 -10 0 0 0 0 0 0 0 0 0 0 -1 0 0 0 0 0 0 0 0 0 0 0 0 0 0 -1 0 0 0 0 0 0 0 0
-15 -8 -1 -8 -30 0 0 0 0 0 0 0 0 0 0 0 0 0 -4 0 0 0 0 0 0 0 0 0 0 0 0 -2 -3 -9 0 0 0 0 0 0 0 0 0 0
-61 0 -21 -1 0 0 0 0 0 0 0 0 0 0 -2 -1 -30 0 -1 0 0 0 0 0 0 0 0 0 0 0 0 0 0 0 0 0 0 0 0 0 0 0 0 -6
-36 0 0 0 0 0 0 -13 -13 0 0 0 -25 -14 0 0 0 0 0 0 0 0 0 0 0 0 0 0 0 0 0 0 0 0 0 0 0 0 0 0 0 0 0 0
0 0 -8 -15 0 -5 -6 0 0 0 0 0 0 0 0 0 0 0 0 0 0 0 0 0 0 0 0 0 0 0 0 0 0 0 0 0 0 0 0 0 0 0 0 0
Wind_Speed
7 6 5 7 8 2 9 16 16 15 10 10 13 14 16 14 19 17 12 14 13 11 11 12 11 11 14 15 13 12 11 9 8 7 7 5 5 5 6 5 6 7 5 5
4 7 7 11 8 15 14 13 9 10 6 10 10 13 16 13 13 12 14 17 16 16 15 12 10 13 14 15 13 12 12 10 7 5 4 3 6 5 6 5 5 6 6 6
3 11 9 13 17 18 14 3 7 7 8 6 8 1 12 15 11 12 13 12 15 17 15 12 11 8 8 11 12 11 7 10 5 9 6 4 6 4 4 4 4 4 5 5
6 18 17 15 16 14 8 14 5 8 7 10 13 6 11 16 14 13 14 13 13 15 14 13 11 11 8 7 8 10 11 11 6 4 6 7 4 6 4 5 5 5 7 7
4 13 14 10 6 5 8 15 9 12 11 2 13 6 7 13 13 15 11 11 12 13 14 15 15 10 6 8 8 7 11 9 6 6 7 6 7 5 5 5 5 5 5 5
6 12 9 6 5 2 8 9 15 10 9 2 9 10 7 13 23 5 12 9 9 12 13 14 16 15 14 11 9 9 11 8 7 8 9 9 8 7 6 3 3 4 3 3
7 17 4 9 7 5 9 9 7 4 6 7 13 10 9 20 14 15 21 16 13 11 13 15 19 16 13 12 10 9 11 10 9 9 9 8 8 7 8 3 3 2 3 3
11 15 11 9 9 7 15 10 4 7 4 10 5 4 5 16 25 30 26 15 14 13 11 11 14 13 12 11 10 10 12 12 11 9 8 7 7 4 5 4 3 1 1 2
4 4 12 3 5 3 5 9 8 4 17 7 4 14 15 8 10 6 17 15 15 12 12 14 14 13 14 13 12 10 12 13 12 9 7 7 6 6 5 5 3 3 2 3
12 8 21 6 4 5 6 9 3 3 3 5 8 9 3 4 5 2 12 14 14 13 13 11 12 12 13 13 12 9 11 13 12 10 7 7 7 6 6 4 4 2 1 3
7 21 7 7 8 10 7 8 8 7 4 1 4 2 7 7 5 5 6 13 13 14 13 13 12 13 13 13 12 10 10 13 11 10 8 8 7 6 5 5 4 2 1 4
8 4 4 8 5 4 9 9 12 3 6 2 0 7 5 4 3 2 4 9 15 16 15 14 13 12 12 12 12 12 9 11 11 8 8 6 7 6 5 4 4 2 2 3
2 3 4 8 9 7 8 11 9 4 3 5 3 4 4 3 1 3 4 6 9 14 15 14 14 13 11 10 10 11 9 10 9 10 8 8 7 4 5 3 2 1 2 3
4 5 8 7 11 8 13 12 12 11 4 3 8 14 8 11 9 8 5 6 6 10 11 13 13 13 12 10 11 10 9 6 8 8 8 9 7 6 4 3 1 1 2 3
2 7 11 14 15 2 12 7 11 13 10 11 9 14 11 9 5 3 3 7 6 9 13 12 11 11 12 12 11 11 9 8 6 5 8 5 6 5 3 2 3 3 1 4
4 2 4 3 10 14 12 14 13 14 12 13 14 13 9 9 9 7 6 5 3 7 10 5 5 8 11 12 12 11 10 9 8 7 5 2 5 3 4 4 3 4 6 6
7 3 2 2 6 7 6 8 15 15 15 10 10 9 7 2 1 6 5 6 3 6 7 6 3 5 7 10 11 11 9 9 7 6 4 4 5 5 3 6 6 6 6 6
4 3 2 1 1 1 9 2 6 6 9 11 12 9 6 13 10 6 8 6 6 1 4 4 3 4 6 7 9 10 10 10 7 5 3 6 1 4 8 5 6 6 5 5
6 4 2 3 4 7 11 2 2 1 3 11 10 11 12 10 7 5 13 10 8 7 3 4 4 5 6 7 8 11 8 8 7 6 7 5 9 5 6 5 4 4 5 5
4 4 1 3 2 4 1 4 3 1 3 8 9 8 7 6 3 4 10 11 10 8 7 6 5 4 6 6 7 9 7 7 8 4 1 5 12 11 7 6 6 4 4 5
3 1 4 3 2 6 2 4 2 2 3 6 5 6 7 5 5 9 8 4 5 10 12 8 5 8 7 7 9 10 10 9 10 10 11 8 11 6 6 5 5 5 5 5
6 6 3 2 2 7 5 4 3 5 3 7 7 6 5 6 6 7 8 10 6 8 11 12 16 15 15 15 10 12 12 11 8 8 6 9 6 5 5 6 5 6 6 6
2 4 2 8 4 4 5 4 4 1 2 4 4 6 7 8 9 9 9 10 8 7 13 15 14 15 15 16 14 14 11 9 3 7 4 5 6 4 6 3 7 6 6 4
3 4 1 2 4 6 8 3 4 2 3 6 8 8 7 7 9 10 9 10 14 13 15 11 14 14 13 12 12 8 3 2 3 5 6 5 4 5 5 5 4 4 4 3
1 8 7 6 8 7 2 11 10 9 7 8 11 12 13 10 9 9 13 13 13 14 13 12 11 10 10 8 6 3 4 5 5 5 6 6 4 5 5 5 3 2 3 1
6 4 3 3 8 4 8 11 8 10 11 10 9 12 14 13 14 17 14 12 12 10 9 9 8 6 5 4 6 5 4 3 4 5 5 5 4 3 4 5 5 6 7 9
Wind_Direction
191 215 227 203 248 214 240 226 214 194 171 230 138 151 175 198 166 169 164 148 149 163 146 151 168 154 139 143 154 157 149 163 202 152 147 156 146 108 97 84 71 63 26 66
175 259 160 232 282 250 259 259 186 129 170 224 199 174 178 197 196 172 176 167 165 176 168 163 178 158 155 153 157 163 161 184 210 132 95 78 102 82 104 117 115 89 60 33
62 286 231 248 219 244 257 247 217 156 196 218 355 279 177 185 203 201 194 188 174 175 157 171 175 162 156 152 147 166 165 185 97 107 101 90 100 132 149 126 105 63 65 27
123 247 234 233 238 237 0 344 201 168 315 211 178 181 47 308 211 199 199 199 188 170 158 167 179 179 140 144 154 165 169 104 104 125 87 85 79 90 80 65 61 28 44 25
226 209 231 217 318 13 168 273 263 251 228 279 327 324 201 243 260 212 224 210 184 159 168 168 178 133 137 151 166 139 110 112 123 94 112 97 100 104 83 61 43 43 22 29
232 284 273 85 191 276 175 239 259 275 266 174 214 199 239 209 241 298 192 205 208 175 161 171 142 157 177 170 126 118 122 129 110 90 79 84 84 84 76 69 48 41 356 6
172 242 112 177 174 191 210 227 242 330 312 279 255 168 222 209 205 141 217 191 187 172 171 171 159 175 147 131 122 130 138 133 122 115 111 109 109 111 113 90 87 15 14 357
228 197 181 212 232 115 258 254 238 162 294 298 10 226 335 149 193 179 207 168 170 175 164 165 162 140 145 141 150 169 149 149 138 131 129 129 132 124 116 118 94 73 35 331
33 287 318 32 254 287 295 246 286 335 197 251 287 286 285 85 103 135 156 166 168 175 175 178 163 155 154 166 173 174 165 154 147 148 136 133 131 106 129 139 113 80 20 306
164 346 269 193 250 258 270 334 282 283 316 285 291 301 306 134 122 217 163 166 172 177 183 184 171 164 164 171 171 176 177 157 157 146 149 158 142 156 148 142 126 91 311 317
229 208 154 144 211 247 183 238 246 289 259 296 314 313 35 34 33 151 225 169 174 178 190 187 185 177 170 168 171 183 187 159 160 153 178 158 159 157 170 161 141 124 317 299
250 312 257 228 267 300 316 289 209 170 269 159 97 279 35 79 52 39 227 198 177 181 190 191 191 187 171 168 177 185 187 171 162 174 170 166 165 178 181 173 140 151 272 304
277 233 267 292 189 212 247 253 267 243 73 213 167 265 161 149 285 318 262 253 187 183 191 195 190 182 176 179 183 182 193 179 170 187 166 180 184 193 184 167 157 222 291 328
335 244 247 237 250 329 198 239 239 233 143 234 258 272 239 201 210 194 200 297 250 190 204 204 195 179 174 179 182 190 190 172 186 176 196 198 185 180 161 136 203 259 294 323
238 242 263 270 262 258 298 266 231 235 227 233 249 259 280 356 355 77 65 181 256 284 209 212 200 177 167 180 186 189 179 184 169 200 219 195 145 137 136 196 218 254 225 270
197 236 315 306 294 289 270 278 270 277 265 253 266 265 296 52 25 20 346 312 278 284 300 238 199 171 180 185 186 187 186 180 167 206 233 144 115 136 78 9 278 260 237 245
161 133 130 242 26 349 326 243 254 267 268 259 258 272 309 305 21 21 341 320 253 285 298 299 253 195 191 191 182 188 180 156 174 189 184 174 88 58 251 245 249 248 243 240
107 148 115 119 318 304 247 19 322 291 287 279 282 292 360 55 39 351 314 293 319 287 324 302 260 218 202 191 181 176 176 161 170 174 130 73 78 266 242 237 250 263 259 246
164 136 143 142 216 279 315 198 329 322 342 26 27 24 38 46 4 14 33 31 14 14 347 276 263 205 184 197 183 172 161 150 156 114 62 9 263 349 290 297 312 299 281 274
89 54 191 163 237 222 113 67 356 346 196 56 36 30 359 355 7 23 24 6 351 321 317 310 293 218 202 189 137 135 125 113 82 77 48 36 13 288 336 327 302 302 309 303
97 189 183 154 241 297 72 112 325 235 68 54 10 354 354 339 3 349 343 313 329 336 337 340 351 32 42 107 114 108 86 75 67 53 35 5 267 305 274 309 332 327 305 292
168 158 187 112 147 267 136 120 131 62 0 9 354 356 347 324 317 298 307 327 8 3 340 34 57 53 42 44 77 87 78 66 65 47 329 265 287 304 319 341 315 298 294 274
189 188 186 176 204 146 191 29 32 19 331 330 325 321 334 337 336 339 334 330 48 6 66 65 74 66 53 46 66 74 58 43 334 244 276 303 284 321 306 332 283 284 277 273
205 102 193 47 227 203 206 218 303 68 349 2 353 333 359 352 4 332 349 49 62 46 63 79 78 72 68 64 70 78 101 350 291 274 267 286 302 280 270 268 265 286 328 297
9 149 203 215 255 283 68 53 47 34 6 20 20 36 31 13 358 17 62 64 71 62 60 68 74 77 80 85 92 152 218 247 260 277 276 271 261 265 262 272 230 225 290 217
189 222 171 211 69 11 35 58 38 59 52 41 38 61 45 37 54 67 62 70 76 78 85 91 99 113 129 165 209 225 244 252 258 264 259 246 248 263 278 280 274 215 228 265